THORAD AGENA D DEB, 4745

Orbit data source: Space-Track

THORAD AGENA D DEB, 4745 is space debris in SSO originally from a launch on Wed, 08 Apr 1970 UTC launched from the Air Force Western Test Range (AFWTR). Debris objects in space refer to the collection of defunct objects orbiting the Earth. Examples of debris include non-operational satellites, rocket bodies, and fragments generated from explosions, collisions, or faulty payload assembly.

Loading next visibility...
Identifier
4745, 1970-025CU
Orbit
SSO
Country
Flag of USUS
Related business
Manufacturer
Unknown
Mission
Spacecraft
Bus & Motor
Unknown
Mass
Unknown
Launch date (UTC)
1970-04-08 (56 years ago)
Launch vehicle
Unknown
Launch site
Air Force Western Test Range (AFWTR)
Object type
Payload
Rocket body
Debris
Shape & HBR
Unknown shape, 0.1 m
Radar Cross Section
Small (<0.1 m²)

Expand to show TLE details & history
Last TLE update: 12 hours ago

TLE from 12 hours ago
0 THORAD AGENA D DEB
1 04745U 70025CU  26037.34550807  .00002506  00000-0  17813-2 0  9999
2 04745 100.0939   4.1732 0027688 347.4499  12.5969 13.98470728802980
Epoch: 2026-02-06T08:17Z
TLE epoch observation values (Epoch: 2026-02-06T08:17:31.897Z)
Latitude
0.00004°
Longitude
103.30558°
Altitude
882.268 km
Speed
7.421 km/s
True Right ascension
00h 16m 41s
True Declination
0° 00' 00"
Sunlit
Object was in daylight at epoch
Visualization orbit readout
Latitude
Unknown
Longitude
Unknown
Altitude
Unknown
Speed
Unknown
Apparent Right ascension
Unknown
Apparent Declination
Unknown
Sunlit
N/A
Visualization observer readout
Local Sidereal Time
22:40:42
Azimuth
Unknown
Elevation
Unknown
Doppler factor
Unknown
Orbital elements
Apogee altitude
916.495 km
Perigee altitude
876.212 km
Semi-major axis
7,274.491 km
Eccentricity
0.00277
Inclination
100.0939°
RAAN
4.1732°
Arg. of periapsis
347.4499°
True anomaly
12.66633°
Mean anomaly
12.5969°
Eccentric anomaly
12.63159°
Mean motion
3.49816 °/min
Orbital period
102.91 mins
BSTAR
0.0017813
Loading maneuver chart data...
Computing Atmospheric mass density...

Documentation

Showing up to 5 results
|